User: anonymous   Login
Location: Mentone
(34.5413°N, 85.5351°W)
Time: 05:27:05
(UTC-05:00)
Language:

Tiros 1 despin weight - Orbit

View from above orbital plane
View from above orbital plane
View from above satellite
View from above satellite

Ground track
Ground track

The orbit data is extracted from the following two-line orbital elements,

1   115U 60002D   17147.71232121 +.00000048 +00000-0 +33121-4 0  9990
2   115 048.1665 242.3049 0034583 007.6392 352.5040 14.83079254026025
Epoch (UTC): 27 May 2017 17:05:44
Eccentricity: 0.0034583
inclination: 48.1665°
perigee height: 595 km
apogee height: 644 km
right ascension of ascending node: 242.3049°
argument of perigee: 7.6392°
revolutions per day: 14.83079254
mean anomaly at epoch: 352.5040°
orbit number at epoch: 2602

The dashed part of the orbit path shows where the satellite is in the earth's shadow,  

DLR